Location: Home
(42.5358°N, 72.7383°W)
Time: 20:17:39
(UTC-05:00)

Explorer 7 - Pass Details

Date: 03 December 2021
Orbit: 483 x 674 km, 50.3° (Epoch: 23 January)

Event Time Altitude Azimuth Distance (km) Brightness Sun altitude
Rises 11:40:14 0° 299° (WNW) 2,608 10.0 25.3°
Reaches altitude 10° 11:42:29 10° 295° (WNW) 1,700 9.2 25.3°
Maximum altitude 11:46:14 57° 217° (SW) 576 7.9 25.3°
Drops below altitude 10° 11:49:54 10° 137° (SE) 1,655 10.0 25.2°
Sets 11:52:04 0° 134° (SE) 2,532 10.8 25.2°
